sat.trackr.live / text

‹ back to catalog

STARLINK-36897

NORAD 67951 · 2026-037V

PAYLOAD ACTIVE UNKNOWN

§ Identity

Operator
Country
US
Launch date
2026-02-24
Launch site
AFETR
Launch vehicle
Mass (kg)
RCS (m²)

Purposes: comms

External: N2YO · Heavens-Above · Gunter

§ Orbital elements

Epoch: 2026-05-25T04:06:44.362656Z

Period
94.27 min
Inclination
43.0007°
Eccentricity
0.0001313
Mean motion
15.27591677 rev/d
Perigee alt
482.1 km
Apogee alt
483.9 km
Semi-major
6,861.2 km
B*
4.0965e-4
RAAN
119.1301°
Arg perigee
274.5531°
Mean anomaly
85.5170°
Rev number
1,503

§ Raw data

STARLINK-368971 67951U 26037V   26145.17134679  .00011032  00000+0  40965-3 0  99952 67951  43.0007 119.1301 0001313 274.5531  85.5170 15.27591677 15030

JSON: /api/v1/satellites/67951 · /tle

For live sub-satellite position, see the globe view (requires WebGL).

§ Visibility from observer

Set your observer location to see the next 7 days of passes ≥ 10°. The values pass through the URL so the page stays shareable.

No JS? Fill the form by hand. The geolocation button needs JavaScript.